When you browse on this site, cookies collect data to enhance your experience and personalize the content and advertising you see.
Visit our Privacy Policy to learn more. By continuing to use the site, you agree to this use of cookies and data.
  • In Hungary
  • List of Countries
  • For 7 days
  • Water Temperature
  • Satellite Maps
  • Weather Map
  • News
  • Weather Widgets
  • user-avatar
    Login

    Hourly Weather Loja

    Today, 21 November, Wednesday

    Time Temperature Precipitation Wind Pressure Humidity
    00:00 +9°C° 0.1 mm 3 mps 706 mmHg 92%
    01:00 +9°C° 0.2 mm 3 mps 706 mmHg 92%
    02:00 +10°C° 0.2 mm 2 mps 706 mmHg 92%
    03:00 +10°C° 0.2 mm 2 mps 706 mmHg 92%
    04:00 +10°C° 0.6 mm 2 mps 706 mmHg 92%
    05:00 +10°C° 0.6 mm 2 mps 706 mmHg 92%
    06:00 +10°C° 0.6 mm 2 mps 706 mmHg 92%
    07:00 +10°C° 0.2 mm 2 mps 707 mmHg 91%
    08:00 +12°C° 0.2 mm 2 mps 707 mmHg 89%
    09:00 +12°C° 0.2 mm 2 mps 707 mmHg 88%
    10:00 +13°C° 0.2 mm 2 mps 708 mmHg 83%
    11:00 +13°C° 0.2 mm 3 mps 708 mmHg 79%
    12:00 +14°C° 0.2 mm 3 mps 708 mmHg 74%
    13:00 +14°C° 0.6 mm 3 mps 708 mmHg 75%
    14:00 +13°C° 0.6 mm 3 mps 708 mmHg 76%
    15:00 +13°C° 0.6 mm 3 mps 708 mmHg 77%
    16:00 +12°C° 0.3 mm 3 mps 708 mmHg 81%
    17:00 +13°C° 0.3 mm 2 mps 708 mmHg 85%
    18:00 +12°C° 0.3 mm 2 mps 708 mmHg 89%
    19:00 +12°C° 0.1 mm 2 mps 709 mmHg 90%
    20:00 +12°C° 0.1 mm 1 mps 709 mmHg 91%
    21:00 +11°C° 0.1 mm 1 mps 709 mmHg 92%
    22:00 +11°C° 0 mm 1 mps 709 mmHg 92%
    23:00 +11°C° 0 mm 1 mps 709 mmHg 92%

    Tomorrow, 22 November, Thursday

    Time Temperature Precipitation Wind Pressure Humidity
    00:00 +11°C° 0 mm 1 mps 709 mmHg 92%
    01:00 +11°C° 0 mm 1 mps 709 mmHg 92%
    02:00 +10°C° 0 mm 1 mps 709 mmHg 91%
    03:00 +10°C° 0 mm 1 mps 710 mmHg 91%
    04:00 +10°C° 0 mm 1 mps 709 mmHg 90%
    05:00 +10°C° 0 mm 1 mps 709 mmHg 88%
    06:00 +10°C° 0 mm 1 mps 709 mmHg 87%
    07:00 +11°C° 0 mm 1 mps 709 mmHg 83%
    08:00 +12°C° 0 mm 1 mps 710 mmHg 79%
    09:00 +12°C° 0 mm 1 mps 710 mmHg 75%
    10:00 +13°C° 0 mm 1 mps 710 mmHg 70%
    11:00 +15°C° 0 mm 1 mps 709 mmHg 66%
    12:00 +16°C° 0 mm 2 mps 709 mmHg 61%
    13:00 +15°C° 0.9 mm 2 mps 709 mmHg 67%
    14:00 +14°C° 0.9 mm 2 mps 708 mmHg 73%
    15:00 +13°C° 0.9 mm 2 mps 708 mmHg 79%
    16:00 +13°C° 2 mm 2 mps 708 mmHg 83%
    17:00 +12°C° 2 mm 1 mps 708 mmHg 87%
    18:00 +11°C° 2 mm 1 mps 708 mmHg 92%
    19:00 +11°C° 0.8 mm 1 mps 709 mmHg 91%
    20:00 +11°C° 0.8 mm 1 mps 709 mmHg 91%
    21:00 +11°C° 0.8 mm 1 mps 709 mmHg 90%
    22:00 +11°C° 0.3 mm 1 mps 709 mmHg 90%
    23:00 +11°C° 0.3 mm 1 mps 709 mmHg 90%

    Day after tomorrow, 23 November, Friday

    Time Temperature Precipitation Wind Pressure Humidity
    00:00 +11°C° 0.3 mm 1 mps 709 mmHg 90%
    01:00 +11°C° 0.8 mm 1 mps 709 mmHg 91%
    02:00 +11°C° 0.8 mm 1 mps 709 mmHg 92%
    03:00 +11°C° 0.8 mm 1 mps 709 mmHg 94%
    04:00 +11°C° 0.7 mm 1 mps 709 mmHg 94%
    05:00 +11°C° 0.7 mm 1 mps 709 mmHg 94%
    06:00 +10°C° 0.7 mm 1 mps 709 mmHg 94%
    07:00 +11°C° 0.5 mm 1 mps 710 mmHg 92%
    08:00 +11°C° 0.5 mm 1 mps 710 mmHg 90%
    09:00 +11°C° 0.5 mm 1 mps 711 mmHg 87%
    10:00 +12°C° 0 mm 1 mps 711 mmHg 80%
    11:00 +13°C° 0 mm 1 mps 711 mmHg 73%
    12:00 +14°C° 0 mm 2 mps 711 mmHg 65%
    13:00 +15°C° 0 mm 2 mps 711 mmHg 64%
    14:00 +15°C° 0 mm 2 mps 711 mmHg 63%
    15:00 +14°C° 0 mm 3 mps 710 mmHg 62%
    16:00 +14°C° 0 mm 2 mps 710 mmHg 68%
    17:00 +12°C° 0 mm 2 mps 710 mmHg 74%
    18:00 +10°C° 0 mm 2 mps 710 mmHg 79%
    19:00 +11°C° 0 mm 1 mps 711 mmHg 81%
    20:00 +10°C° 0 mm 1 mps 711 mmHg 82%
    21:00 +10°C° 0 mm 1 mps 711 mmHg 83%
    22:00 +10°C° 0 mm 1 mps 711 mmHg 83%
    23:00 +10°C° 0 mm 1 mps 711 mmHg 83%

    24 November, Saturday

    Time Temperature Precipitation Wind Pressure Humidity
    00:00 +9°C° 0 mm 1 mps 711 mmHg 83%
    01:00 +9°C° 0 mm 1 mps 711 mmHg 83%
    02:00 +9°C° 0 mm 1 mps 711 mmHg 83%
    03:00 +9°C° 0 mm 1 mps 711 mmHg 82%
    04:00 +8°C° 0 mm 1 mps 711 mmHg 82%
    05:00 +8°C° 0 mm 1 mps 711 mmHg 82%
    06:00 +8°C° 0 mm 1 mps 711 mmHg 81%
    07:00 +9°C° 0 mm 1 mps 711 mmHg 77%
    08:00 +10°C° 0 mm 1 mps 711 mmHg 72%
    09:00 +11°C° 0 mm 1 mps 712 mmHg 67%
    10:00 +12°C° 0 mm 1 mps 712 mmHg 63%
    11:00 +13°C° 0 mm 1 mps 712 mmHg 59%
    12:00 +14°C° 0 mm 1 mps 711 mmHg 54%
    13:00 +15°C° 0 mm 1 mps 711 mmHg 54%
    14:00 +15°C° 0 mm 1 mps 711 mmHg 54%
    15:00 +15°C° 0 mm 1 mps 710 mmHg 54%
    16:00 +14°C° 0 mm 1 mps 710 mmHg 60%
    17:00 +12°C° 0 mm 1 mps 710 mmHg 66%
    18:00 +10°C° 0 mm 0 mps 710 mmHg 72%
    19:00 +10°C° 0 mm 0 mps 711 mmHg 74%
    20:00 +9°C° 0 mm 0 mps 711 mmHg 76%
    21:00 +9°C° 0 mm 0 mps 711 mmHg 78%
    22:00 +9°C° 0 mm 0 mps 711 mmHg 78%
    23:00 +8°C° 0 mm 0 mps 711 mmHg 79%

    25 November, Sunday

    Time Temperature Precipitation Wind Pressure Humidity
    00:00 +9°C° 0 mm 1 mps 711 mmHg 79%
    01:00 +9°C° 0 mm 1 mps 711 mmHg 80%
    02:00 +9°C° 0 mm 1 mps 711 mmHg 80%
    03:00 +8°C° 0 mm 1 mps 710 mmHg 81%
    04:00 +8°C° 0 mm 1 mps 710 mmHg 81%
    05:00 +8°C° 0 mm 1 mps 710 mmHg 81%
    06:00 +7°C° 0 mm 2 mps 710 mmHg 82%
    07:00 +8°C° 0 mm 2 mps 711 mmHg 76%
    08:00 +9°C° 0 mm 2 mps 711 mmHg 70%
    09:00 +10°C° 0 mm 2 mps 712 mmHg 65%
    10:00 +12°C° 0 mm 2 mps 712 mmHg 64%
    11:00 +13°C° 0 mm 2 mps 712 mmHg 64%
    12:00 +14°C° 0 mm 2 mps 711 mmHg 63%
    13:00 +14°C° 0 mm 2 mps 711 mmHg 66%
    14:00 +14°C° 0 mm 2 mps 711 mmHg 69%
    15:00 +15°C° 0 mm 2 mps 710 mmHg 71%
    16:00 +14°C° 0 mm 2 mps 710 mmHg 75%
    17:00 +13°C° 0 mm 2 mps 710 mmHg 79%
    18:00 +13°C° 0 mm 2 mps 710 mmHg 83%
    19:00 +13°C° 0.1 mm 2 mps 711 mmHg 83%
    20:00 +13°C° 0.1 mm 2 mps 711 mmHg 83%
    21:00 +12°C° 0.1 mm 3 mps 711 mmHg 83%
    22:00 +12°C° 0.3 mm 3 mps 711 mmHg 85%
    23:00 +12°C° 0.3 mm 3 mps 710 mmHg 86%

    26 November, Monday

    Time Temperature Precipitation Wind Pressure Humidity
    00:00 +12°C° 0.3 mm 3 mps 710 mmHg 88%
    01:00 +12°C° 0.6 mm 3 mps 710 mmHg 90%
    02:00 +12°C° 0.6 mm 3 mps 710 mmHg 92%
    03:00 +12°C° 0.6 mm 3 mps 709 mmHg 94%
    04:00 +12°C° 0.2 mm 3 mps 709 mmHg 95%
    05:00 +12°C° 0.2 mm 3 mps 710 mmHg 96%
    06:00 +13°C° 0.2 mm 4 mps 710 mmHg 97%
    07:00 +12°C° 0.1 mm 4 mps 710 mmHg 94%
    08:00 +12°C° 0.1 mm 4 mps 711 mmHg 91%
    09:00 +12°C° 0.1 mm 4 mps 711 mmHg 88%
    10:00 +13°C° 0 mm 4 mps 712 mmHg 78%
    11:00 +13°C° 0 mm 3 mps 712 mmHg 68%
    12:00 +13°C° 0 mm 3 mps 712 mmHg 58%
    13:00 +13°C° 0 mm 3 mps 712 mmHg 53%
    14:00 +13°C° 0 mm 3 mps 712 mmHg 49%
    15:00 +13°C° 0 mm 3 mps 712 mmHg 44%
    16:00 +12°C° 0 mm 3 mps 712 mmHg 49%
    17:00 +12°C° 0 mm 2 mps 712 mmHg 54%
    18:00 +9°C° 0 mm 2 mps 712 mmHg 59%
    19:00 +9°C° 0 mm 2 mps 713 mmHg 60%
    20:00 +9°C° 0 mm 2 mps 713 mmHg 62%
    21:00 +9°C° 0 mm 2 mps 713 mmHg 64%
    22:00 +9°C° 0 mm 1 mps 713 mmHg 64%
    23:00 +9°C° 0 mm 1 mps 713 mmHg 65%
    Show more